User: anonymous   Login
Location: Unspecified
(0.0000°N, 0.0000°E)
Time: 21:39:17
(UTC+00:00)
Language:

SIRIUS-1 - Orbit

View from above orbital plane
View from above orbital plane
View from above satellite
View from above satellite

Ground track
Ground track

The orbit data is extracted from the following two-line orbital elements,

1 26390U 00035A   19078.62532323 -.00000003 +00000-0 +00000-0 0  9993
2 26390 059.4231 213.1385 0000151 188.6617 261.7194 01.57876845030119
Epoch (UTC): 19 March 2019 15:00:27
Eccentricity: 0.0000151
inclination: 59.4231°
perigee height: 24776 km
apogee height: 24777 km
right ascension of ascending node: 213.1385°
argument of perigee: 188.6617°
revolutions per day: 1.57876845
mean anomaly at epoch: 261.7194°
orbit number at epoch: 3011

The dashed part of the orbit path shows where the satellite is in the earth's shadow,  

DLR